FENGYUN 1C DEB

Satellite information

Favourite Embed

Satellite Type and Status

DEBRISIN ORBIT

Key statistics

Satellite FENGYUN 1C DEB at a glance.

Uptime

9666

Days in orbit

Revolutions

≈ 13.6

Per day

Orbit

SSO

Sun Synchronous Orbit

Inclination

98.7

Latest

Satellite identification and parameters

Extended collection of information and parameters for FENGYUN 1C DEB.

Object identification

Identified? True

Debris? True

Object name: FENGYUN 1C DEB

International designator: 1999-025ACZ

Object number (NORAD): 30386

Object ID (CCSDS): 30386

Country: PEOPLES REPUBLIC OF CHINA (PRC)

Current information (Y/N): Y

RCS size: SMALL

Orbital parameters

Period: 106.242 minutes

Inclination: 98.6895 deg

SMA: 7430.628 km

Apoapsis: 1280.204 km

Periapsis: 824.783 km

RAAN: 198.3653 deg

Eccentricy: 0.0306448

Argument of periapsis: 284.5644 deg

Mean anomaly: 204.9639 deg

Mean motion: 13.55390533 rev/day

Mean motion (dot): 0.00001994 rev/day2

B* drag term: 0.0021717 1/REarth

Two-line elements (TLE)

Creation date: Oct. 24, 2025, 9:16 p.m.

Reference frame: TEME

Reference center: EARTH

Epoch: Oct. 24, 2025, 6:58 a.m. UTC

TLE line 0: 0 FENGYUN 1C DEB

TLE line 1: 1 30386U 99025ACZ 25297.29092060 .00001994 00000-0 21717-2 0 9991

TLE line 2: 2 30386 98.6895 198.3653 0306448 284.5644 204.9639 13.55390533921596

Live tracking on map

Real-time ground track for satellite FENGYUN 1C DEB.

In-orbit conjunctions

A list of the most updated potential collisions computed for object FENGYUN 1C DEB.

Target Orbit TCA Probability of collision Miss distance Type
SL-3 R/B LEO 2025-06-12 11:01:26 0.0002696761 140.0 (m) ROCKET BODY
COSMOS 2218 LEO 2024-08-05 17:13:19 0.0001537135 338.0 (m) PAYLOAD

Associated space launch

Chinese polar orbiting meteorological satellite

FENGYUN 1C DEB was lifted into orbit during the mission ‘Long March 4B | Feng Yun 1C’, on board a Long March 4B space rocket.

The launch took place on May 10, 1999, 1:33 a.m. from Launch Complex 7.

For more information about the launch, click the button.

Launch to space Long March 4B | Feng Yun 1C
Long March 4B | Feng Yun 1C

Agency: N/A

Status: Launch Successful

Launch date: May 10, 1999, 1:33 a.m. UTC

Rocket: Long March 4B

Launch pad: Launch Complex 7

Location: Taiyuan Satellite Launch Center, People's Republic of China

...

Latest news about this satellite

There are no fresh news available about this satellite. Check back as we update our databases every day.


Newsletter sign-up

Weekly statistics, charts and insights to help you stay on top of the space industry.